Location: Hermaringen
(48.5952°N, 10.2585°E)
Time: 12:54:55
(UTC+00:00)

A-11 Canister half - Pass Details

Date: 19 February 2026
Orbit: 1513 x 1687 km, 47.2° (Epoch: 11 March)

Event Time Altitude Azimuth Distance (km) Brightness Sun altitude
Rises 18:01:19 0° 191° (S) 4,924 11.8 -13.0°
Reaches altitude 10° 18:05:19 10° 179° (S) 3,943 11.1 -13.7°
Maximum altitude 18:12:45 24° 131° (SE) 2,983 10.1 -14.9°
Enters shadow 18:16:33 19° 101° (ESE) 3,258 10.1 -15.5°
Drops below altitude 10° 18:20:07 10° 83° (E) 3,917 - -16.1°
Sets 18:24:01 0° 70° (ENE) 4,886 - -16.7°
